Creston
Saturday 9:35 PM
Temperature36° (46°/27°)
Dew Point34°
Feels Like33°
Relative Humidity93
%
Visibility10
mi
Pressure1020.0
mb
Wind Direction
Wind Speed3
mph
Precipitation Today0.23"

Last 30 Observations

Time PresWx Temp DP Feels RH% Vsby Pressure Ceiling Direction Speed 1h Precip
9:35 PM 10
mi
0.00"
9:15 PM 36° 34° 31°93
%
10
mi
1020.0
mb
E
100°
6
mph
0.00"
8:55 PM 36° 34° 31°93
%
10
mi
1019.7
mb
10,000
ft
E
80°
6
mph
0.00"
8:35 PM 36° 34° 31°93
%
10
mi
1019.7
mb
ESE
110°
6
mph
0.00"
8:15 PM 37° 36° 34°93
%
10
mi
1019.7
mb
ESE
110°
5
mph
0.00"
7:55 PM 39° 32° 36°75
%
10
mi
1019.7
mb
E
80°
5
mph
0.00"
7:35 PM 41° 32° 37°70
%
10
mi
1019.7
mb
E
80°
6
mph
0.00"
7:15 PM 43° 32° 37°65
%
10
mi
1019.7
mb
ENE
70°
9
mph
0.00"
6:55 PM 45° 30° 40°57
%
10
mi
1020.0
mb
ENE
60°
8
mph
0.00"
6:35 PM 45° 30° 40°57
%
10
mi
1019.7
mb
8
mph
0.00"
6:15 PM 46° 28° 42°49
%
10
mi
1020.0
mb
E
100°
9
mph
0.00"
5:55 PM 46° 30° 41°53
%
10
mi
1019.7
mb
10,000
ft
E
80°
10
mph
0.00"
5:35 PM 46° 30° 41°53
%
10
mi
1019.7
mb
10,000
ft
E
90°
10
mph
0.00"
5:15 PM 46° 30° 42°53
%
10
mi
1019.7
mb
10,000
ft
E
100°
9
mph
0.00"
4:55 PM 46° 30° 42°53
%
10
mi
1020.0
mb
10,000
ft
E
100°
8
mph
0.00"
4:35 PM 45° 32° 40°61
%
10
mi
1020.0
mb
10,000
ft
E
90°
9
mph
0.00"
4:15 PM 46° 32° 41°57
%
10
mi
1020.0
mb
ENE
70°
11
mph
0.00"
3:55 PM 45° 32° 40°61
%
10
mi
1020.3
mb
E
90°
9
mph
0.00"
3:35 PM 45° 32° 39°61
%
10
mi
1020.7
mb
E
90°
11
mph
0.00"
3:15 PM 43° 34° 37°70
%
10
mi
1020.7
mb
ENE
60°
10
mph
0.00"
2:55 PM 43° 34° 37°70
%
10
mi
1021.3
mb
ENE
70°
10
mph
0.00"
2:35 PM 41° 32° 34°70
%
10
mi
1021.7
mb
ENE
70°
11
mph
0.00"
2:15 PM 41° 34° 35°75
%
10
mi
1022.0
mb
ENE
70°
10
mph
0.00"
1:55 PM 41° 36° 34°81
%
10
mi
1022.7
mb
ENE
60°
11
mph
0.00"
1:35 PM 41° 36° 34°81
%
10
mi
1022.7
mb
E
90°
11
mph
0.00"
1:15 PM 39° 39° 34°100
%
10
mi
1023.0
mb
ENE
70°
8
mph
0.00"
12:55 PM 37° 37° 30°100
%
10
mi
1023.0
mb
ENE
70°
10
mph
Trace
12:35 PM 37° 37° 30°100
%
10
mi
1023.4
mb
ENE
60°
10
mph
0.00"
12:15 PM 36° 36° 29°100
%
10
mi
1023.4
mb
1,200
ft
NE
50°
9
mph
0.00"
11:55 AM 34° 34° 26°100
%
10
mi
1023.4
mb
1,100
ft
ENE
60°
9
mph
Trace